GW3225 Weather Reports


Display with metric or nautical units.
time (UTC)temp
F
wind
direction
speed
MPH
gust
MPH
rain 1hr
in
rain 24hr
in
rain mn
in
humidity
%
barometer
mb
20260504185501 70 175 1.0 2.0 0.00 0.00 0.00 37 1005.7
20260504184957 71 219 1.0 1.0 0.00 0.00 0.00 38 1005.8
20260504184453 70 99 2.0 3.0 0.00 0.00 0.00 38 1005.6
20260504183949 71 266 4.0 6.0 0.00 0.00 0.00 37 1005.9
20260504183446 71 265 4.0 6.0 0.00 0.00 0.00 35 1005.9
20260504182944 71 273 5.0 6.0 0.00 0.00 0.00 37 1005.8
20260504182440 71 217 3.0 4.0 0.00 0.00 0.00 37 1006.1
20260504181938 69 197 0.0 1.0 0.00 0.00 0.00 41 1006.2
20260504181435 69 44 3.0 4.0 0.00 0.00 0.00 42 1006.1
20260504180933 69 304 9.0 11.0 0.00 0.00 0.00 40 1006.0
20260504180432 69 16 4.0 8.0 0.00 0.00 0.00 42 1006.1
20260504175930 69 207 3.0 3.0 0.00 0.00 0.00 41 1006.0
20260504175427 69 208 1.0 1.0 0.00 0.00 0.00 42 1006.1
20260504174924 70 198 1.0 1.0 0.00 0.00 0.00 42 1006.1
20260504174422 69 222 2.0 2.0 0.00 0.00 0.00 42 1006.1
20260504173919 69 355 4.0 8.0 0.00 0.00 0.00 42 1006.2
20260504173415 70 243 2.0 2.0 0.00 0.00 0.00 42 1006.0
20260504172913 69 274 5.0 7.0 0.00 0.00 0.00 42 1006.1
20260504172409 69 263 4.0 6.0 0.00 0.00 0.00 42 1006.2
20260504171905 70 201 1.0 2.0 0.00 0.00 0.00 42 1006.0
20260504171403 70 233 2.0 3.0 0.00 0.00 0.00 43 1006.2
20260504170859 69 141 1.0 1.0 0.00 0.00 0.00 43 1006.2
20260504170356 68 298 1.0 3.0 0.00 0.00 0.00 46 1006.1
20260504160315 65 156 1.0 1.0 0.00 0.00 0.00 46 1007.0
20260504150739 62 272 2.0 3.0 0.00 0.00 0.00 51 1007.4
20260504150236 61 165 2.0 3.0 0.00 0.00 0.00 49 1007.3
20260504141206 58 184 1.0 2.0 0.00 0.00 0.00 52 1007.3
20260504140702 58 129 1.0 1.0 0.00 0.00 0.00 52 1007.4
20260504140158 57 178 1.0 2.0 0.00 0.00 0.00 52 1007.5
20260504130626 54 147 1.0 1.0 0.00 0.00 0.00 55 1007.9
20260504130123 54 162 3.0 6.0 0.00 0.00 0.00 53 1008.1
20260504110514 50 153 2.0 4.0 0.00 0.00 0.00 57 1008.0
20260504100431 49 187 1.0 1.0 0.00 0.00 0.00 57 1007.5
20260504081824 49 182 0.0 0.0 0.00 0.00 0.00 55 1008.5
20260504081321 49 183 1.0 1.0 0.00 0.00 0.00 55 1008.6
20260504080816 49 163 1.0 1.0 0.00 0.00 0.00 55 1008.5
20260504080314 49 183 2.0 3.0 0.00 0.00 0.00 55 1008.6
20260504070235 48 195 0.0 0.0 0.00 0.00 0.00 57 1008.9
20260504060155 49 171 2.0 2.0 0.00 0.00 0.00 54 1009.2
20260504050624 50 208 1.0 2.0 0.00 0.00 0.00 54 1009.6
20260504050121 50 106 0.0 1.0 0.00 0.00 0.00 53 1009.5
20260504045618 50 191 1.0 2.0 0.00 0.00 0.00 53 1009.4
20260504045112 50 209 1.0 1.0 0.00 0.00 0.00 52 1009.6
20260504044611 50 158 3.0 4.0 0.00 0.00 0.00 53 1009.5
20260504044107 50 206 0.0 0.0 0.00 0.00 0.00 53 1009.5
20260504043604 50 193 0.0 0.0 0.00 0.00 0.00 53 1009.5
20260504043101 50 211 1.0 2.0 0.00 0.00 0.00 53 1009.6
20260504042558 50 193 0.0 0.0 0.00 0.00 0.00 52 1009.6
20260504042055 50 193 0.0 0.0 0.00 0.00 0.00 52 1009.5
20260504041551 50 121 2.0 3.0 0.00 0.00 0.00 53 1009.7
20260504041047 50 182 0.0 1.0 0.00 0.00 0.00 53 1009.7
20260504040545 50 127 2.0 6.0 0.00 0.00 0.00 53 1009.6
20260504040041 51 211 0.0 1.0 0.00 0.00 0.00 53 1009.6
20260504035538 51 188 0.0 0.0 0.00 0.00 0.00 54 1009.6
20260504035034 51 165 1.0 1.0 0.00 0.00 0.00 54 1009.5
20260504034533 51 212 1.0 2.0 0.00 0.00 0.00 53 1009.7
20260504034029 51 206 2.0 3.0 0.00 0.00 0.00 52 1009.6
20260504033528 51 241 1.0 2.0 0.00 0.00 0.00 53 1009.7
20260504033024 51 252 2.0 2.0 0.00 0.00 0.00 52 1009.6
20260504032521 51 196 0.0 0.0 0.00 0.00 0.00 52 1009.8
20260504032018 51 147 2.0 3.0 0.00 0.00 0.00 52 1009.7
20260504031515 52 171 1.0 1.0 0.00 0.00 0.00 51 1009.8
20260504031011 52 206 0.0 1.0 0.00 0.00 0.00 52 1009.7
20260504030509 52 5 3.0 4.0 0.00 0.00 0.00 51 1009.8
20260504030004 51 183 0.0 1.0 0.00 0.00 0.00 53 1009.6
20260504025501 51 189 0.0 0.0 0.00 0.00 0.00 54 1009.8
20260504024958 51 187 0.0 0.0 0.00 0.00 0.00 54 1009.8
20260504024455 52 197 0.0 1.0 0.00 0.00 0.00 54 1009.7
20260504023953 52 202 1.0 2.0 0.00 0.00 0.00 54 1009.9
20260504023449 52 197 0.0 1.0 0.00 0.00 0.00 53 1009.9
20260504022944 52 196 1.0 1.0 0.00 0.00 0.00 53 1009.9
20260504022441 53 193 0.0 1.0 0.00 0.00 0.00 52 1010.1
20260504021938 53 51 1.0 2.0 0.00 0.00 0.00 52 1010.2
20260504021435 53 189 0.0 0.0 0.00 0.00 0.00 52 1010.2
20260504020932 53 309 3.0 3.0 0.00 0.00 0.00 51 1009.8
20260504020429 53 224 3.0 4.0 0.00 0.00 0.00 52 1009.9
20260504015925 53 179 1.0 2.0 0.00 0.00 0.00 52 1010.0
20260504015421 53 219 2.0 3.0 0.00 0.00 0.00 51 1010.1
20260504014917 53 306 6.0 10.0 0.00 0.00 0.00 50 1010.1
20260504014414 54 343 3.0 9.0 0.00 0.00 0.00 49 1010.3
20260504013911 54 276 4.0 4.0 0.00 0.00 0.00 47 1010.1
20260504013409 54 105 3.0 4.0 0.00 0.00 0.00 48 1009.9
20260504012905 54 181 5.0 10.0 0.00 0.00 0.00 47 1009.9
20260504012403 53 324 5.0 10.0 0.00 0.00 0.00 48 1009.9
20260504011900 53 320 5.0 9.0 0.00 0.00 0.00 47 1009.8
20260504011356 53 241 1.0 1.0 0.00 0.00 0.00 48 1010.1
20260504010847 53 301 3.0 4.0 0.00 0.00 0.00 49 1009.8
20260504010343 53 247 3.0 3.0 0.00 0.00 0.00 49 1009.9
20260504005839 53 26 2.0 3.0 0.00 0.00 0.00 49 1010.2
20260504005336 53 289 4.0 7.0 0.00 0.00 0.00 48 1010.1
20260504004834 53 199 6.0 13.0 0.00 0.00 0.00 47 1010.3
20260504004331 53 177 4.0 6.0 0.00 0.00 0.00 47 1010.3
20260504003827 53 143 4.0 7.0 0.00 0.00 0.00 46 1010.4
20260504003325 53 194 1.0 2.0 0.00 0.00 0.00 48 1010.2
20260504002821 53 242 5.0 8.0 0.00 0.00 0.00 47 1010.4
20260504002318 53 116 7.0 13.0 0.00 0.00 0.00 46 1010.3
20260504001816 53 289 5.0 7.0 0.00 0.00 0.00 45 1010.4
20260504001313 53 302 6.0 9.0 0.00 0.00 0.00 44 1010.4
20260504000810 53 237 3.0 4.0 0.00 0.00 0.00 45 1010.2
20260504000307 53 293 5.0 6.0 0.00 0.00 0.00 46 1009.9
20260503235804 53 253 2.0 3.0 0.00 0.00 0.00 46 1009.9
20260503235302 53 237 3.0 3.0 0.00 0.00 0.00 45 1009.9
20260503234759 53 199 3.0 3.0 0.00 0.00 0.00 46 1010.0
20260503234257 53 318 4.0 6.0 0.00 0.00 0.00 46 1010.0
20260503233754 53 294 4.0 10.0 0.00 0.00 0.00 45 1010.0
20260503233249 53 310 3.0 3.0 0.00 0.00 0.00 45 1010.1
20260503232746 53 157 4.0 7.0 0.00 0.00 0.00 45 1010.1
20260503232238 53 259 8.0 15.0 0.00 0.00 0.00 44 1010.3
20260503231736 54 303 6.0 9.0 0.00 0.00 0.00 43 1010.2
20260503231233 54 320 10.0 19.0 0.00 0.00 0.00 43 1010.0
20260503230728 54 261 6.0 11.0 0.00 0.00 0.00 43 1010.0
20260503230226 54 44 8.0 11.0 0.00 0.00 0.00 44 1009.9
20260503225718 55 15 5.0 8.0 0.00 0.00 0.00 44 1009.7
20260503225217 55 275 10.0 22.0 0.00 0.00 0.00 42 1009.8
20260503224714 55 148 3.0 4.0 0.00 0.00 0.00 42 1009.5
20260503224212 55 287 3.0 4.0 0.00 0.00 0.00 41 1009.7
20260503223710 55 310 7.0 9.0 0.00 0.00 0.00 40 1009.6
20260503223208 56 288 9.0 14.0 0.00 0.00 0.00 38 1009.6
20260503222704 56 41 6.0 8.0 0.00 0.00 0.00 38 1009.7
20260503222202 56 63 4.0 6.0 0.00 0.00 0.00 38 1009.4
20260503221700 56 298 4.0 4.0 0.00 0.00 0.00 38 1009.6
20260503221157 56 133 5.0 8.0 0.00 0.00 0.00 38 1009.4
20260503220654 56 342 7.0 9.0 0.00 0.00 0.00 38 1009.6
20260503220150 56 288 5.0 7.0 0.00 0.00 0.00 37 1009.5
20260503215647 56 13 4.0 7.0 0.00 0.00 0.00 37 1009.7
20260503215143 56 328 4.0 6.0 0.00 0.00 0.00 37 1009.4
20260503214642 56 242 5.0 8.0 0.00 0.00 0.00 39 1009.4
20260503214137 56 323 6.0 11.0 0.00 0.00 0.00 36 1009.6
20260503213632 56 46 6.0 9.0 0.00 0.00 0.00 38 1009.4
20260503213128 57 305 5.0 6.0 0.00 0.00 0.00 39 1009.2
20260503212626 57 236 3.0 3.0 0.00 0.00 0.00 38 1009.3
20260503212123 58 295 4.0 8.0 0.00 0.00 0.00 37 1009.2
20260503211621 58 269 5.0 7.0 0.00 0.00 0.00 36 1009.4
20260503211116 58 20 7.0 10.0 0.00 0.00 0.00 36 1009.3
20260503210612 59 331 5.0 7.0 0.00 0.00 0.00 35 1009.3
20260503210108 59 142 1.0 2.0 0.00 0.00 0.00 36 1009.3
20260503205604 58 249 5.0 7.0 0.00 0.00 0.00 36 1009.5
20260503205100 59 303 8.0 11.0 0.00 0.00 0.00 36 1009.5
20260503204558 57 282 8.0 11.0 0.00 0.00 0.00 36 1009.7
20260503204055 57 217 3.0 4.0 0.00 0.00 0.00 38 1009.5
20260503203552 58 208 6.0 9.0 0.00 0.00 0.00 37 1009.3
20260503203049 58 3 4.0 7.0 0.00 0.00 0.00 38 1009.5
20260503202547 57 170 2.0 2.0 0.00 0.00 0.00 40 1009.5
20260503202044 57 257 5.0 6.0 0.00 0.00 0.00 39 1009.9
20260503201543 56 278 3.0 3.0 0.00 0.00 0.00 40 1009.9
20260503201039 55 189 2.0 2.0 0.00 0.00 0.00 41 1009.8
20260503200535 55 173 0.0 0.0 0.00 0.00 0.00 42 1009.8
20260503200033 54 201 2.0 2.0 0.00 0.00 0.00 40 1010.1
20260503195530 54 219 1.0 1.0 0.00 0.00 0.00 42 1010.1
20260503195026 53 319 2.0 3.0 0.00 0.00 0.00 41 1010.4
20260503194524 53 301 1.0 2.0 0.00 0.00 0.00 42 1010.4
20260503194023 53 264 2.0 3.0 0.00 0.00 0.00 42 1010.5
20260503193520 53 233 3.0 3.0 0.00 0.00 0.00 41 1010.6
20260503193015 53 140 2.0 3.0 0.00 0.00 0.00 42 1010.6
20260503192512 53 86 2.0 2.0 0.00 0.00 0.00 43 1011.0
20260503192008 53 216 0.0 1.0 0.00 0.00 0.00 44 1011.0
20260503191505 53 219 1.0 2.0 0.00 0.00 0.00 43 1010.8
20260503191002 53 192 2.0 3.0 0.00 0.00 0.00 41 1010.8
20260503190459 53 230 2.0 2.0 0.00 0.00 0.00 42 1011.1
20260503185956 53 202 6.0 9.0 0.00 0.00 0.00 41 1011.0